Regional Weather Roundup
Issued by NWS

Home | Current Version | Previous Version | Graphics & Text | Print | Product List | Glossary Off
Versions: 1 2 3 4 5 6 7 8 9 10 11 12 13 14 15 16 17 18 19 20 21 22 23 24 25 26 27 28 29 30 31 32 33 34 35 36 37 38 39 40 41 42 43 44 45 46 47 48 49 50

925
ASUS43 KTOP 260559
RWRKS

WEATHER ROUNDUP FOR KANSAS
NATIONAL WEATHER SERVICE GOODLAND KS
100 AM CDT SUN MAR 26 2017

NOTE:  "FAIR" INDICATES FEW OR NO CLOUDS BELOW 12,000 FEET WITH NO
SIGNIFICANT WEATHER AND/OR OBSTRUCTIONS TO VISIBILITY.

KSZ001>006-013>018-027>032-041>047-260700-
NORTHWEST KANSAS

CITY           SKY/WX    TMP DP  RH WIND       PRES   REMARKS
GOODLAND       CLOUDY    39  38  96 S14       29.86R WCI  31
6HR MIN TEMP:  39; 6HR MAX TEMP:  57;

HAYS             N/A     43  38  82 E6        29.90S
HILL CITY      CLOUDY    38  38 100 CALM      29.91R FOG
6HR MIN TEMP:  34; 6HR MAX TEMP:  52;

RUSSELL        CLOUDY    41  39  93 E8        29.89S
6HR MIN TEMP:  41; 6HR MAX TEMP:  48;

$$

KSZ061>065-074>080-084>089-260700-
SOUTHWEST KANSAS

CITY           SKY/WX    TMP DP  RH WIND       PRES   REMARKS
DODGE CITY     CLOUDY    40  38  93 SE6       29.89S
6HR MIN TEMP:  38; 6HR MAX TEMP:  61;

ELKHART          N/A    N/A N/A N/A MISG        N/A
GARDEN CITY    CLOUDY    39  36  89 E9        29.87S
6HR MIN TEMP:  39; 6HR MAX TEMP:  61;

GREAT BEND     CLOUDY    41  39  93 E6        29.90F
LIBERAL        CLEAR     46  36  66 E12G17    29.87S
$$

KSZ066>073-081>083-090>101-260700-
SOUTHEAST KANSAS

CITY           SKY/WX    TMP DP  RH WIND       PRES   REMARKS
CHANUTE        CLOUDY    47  44  90 W5        29.91S
6HR MIN TEMP:  47; 6HR MAX TEMP:  48;

COFFEYVILLE    CLOUDY    48  43  82 NW6       29.92F
6HR MIN TEMP:  48; 6HR MAX TEMP:  49;

HUTCHINSON     CLOUDY    43  40  89 N6        29.91R
6HR MIN TEMP:  43; 6HR MAX TEMP:  46;

MEDICINE LODGE   N/A     38  35  89 CALM      29.91S
NEWTON         CLOUDY    41  41 100 NE6       29.91F FOG
PARSONS        CLOUDY    47  45  93 SW5       29.92F
6HR MIN TEMP:  47; 6HR MAX TEMP:  49;

WICHITA INTL   CLOUDY    44  42  93 CALM      29.91R
6HR MIN TEMP:  44; 6HR MAX TEMP:  46;

WICHITA JABRA  CLOUDY    43  43 100 NE3       29.90F FOG
6HR MIN TEMP:  43; 6HR MAX TEMP:  45;

WINFIELD       CLOUDY    46  42  86 NW3       29.92R
6HR MIN TEMP:  45; 6HR MAX TEMP:  47;

$$

KSZ007>012-019>026-033>040-048>060-102>105-260700-
NORTHEAST KANSAS

CITY           SKY/WX    TMP DP  RH WIND       PRES   REMARKS
CONCORDIA      CLOUDY    40  40 100 N3        29.91F FOG
6HR MIN TEMP:  40; 6HR MAX TEMP:  42;

EMPORIA        CLOUDY    44  44 100 N5        29.89F
6HR MIN TEMP:  44; 6HR MAX TEMP:  45;

LAWRENCE       CLOUDY    44  42  93 NW8       29.90S
6HR MIN TEMP:  44; 6HR MAX TEMP:  47;

MANHATTAN      CLOUDY    44  41  89 N3        29.90F
6HR MIN TEMP:  44; 6HR MAX TEMP:  45; 6HR PCP:  0.01;

OLATHE IND     CLOUDY    44  42  93 NW8       29.89R
6HR MIN TEMP:  44; 6HR MAX TEMP:  48;

OLATHE EXE     CLOUDY    44  44 100 NW7       29.87S
6HR MIN TEMP:  44; 6HR MAX TEMP:  49;

SALINA         CLOUDY    44  42  93 N6        29.91F FOG
6HR MIN TEMP:  44; 6HR MAX TEMP:  46;

TOPEKA BILLARD CLOUDY    44  43  96 NW5       29.90S
6HR MIN TEMP:  44; 6HR MAX TEMP:  47;

TOPEKA FORBES  CLOUDY    45  42  89 N6        29.89F
6HR MIN TEMP:  43; 6HR MAX TEMP:  47; 6HR PCP: TRACE;

$$




USA.gov is the U.S. government's official web portal to all federal, state and local government web resources and services.